Regional Weather Roundup
Issued by NWS

Home | Current Version | Previous Version | Graphics & Text | Print | Product List | Glossary Off
Versions: 1 2 3 4 5 6 7 8 9 10 11 12 13 14 15 16 17 18 19 20 21 22 23 24 25 26 27 28 29 30 31 32 33 34 35 36 37 38 39 40 41 42 43 44 45 46 47 48 49 50

000
ASUS43 KDMX 230701
RWRIA

WEATHER ROUNDUP FOR IOWA
NATIONAL WEATHER SERVICE DES MOINES IA
100 AM CST TUE JAN 23 2018

NOTE: "FAIR" INDICATES FEW OR NO CLOUDS BELOW 12,000 FEET WITH NO
SIGNIFICANT WEATHER AND/OR OBSTRUCTIONS TO VISIBILITY.

* - THESE STATIONS ARE NOT NWS STATIONS...THUS NOT UNDER NWS
QUALITY CONTROL.  THEY ALSO DO NOT REPORT WEATHER SUCH
AS PRECIPITATION OR FOG.

IAZ001>003-012>014-020>022-031>034-043>046-230800-
   NORTHWEST IOWA

CITY           SKY/WX    TMP DP  RH WIND       PRES   REMARKS
CARROLL *      CLOUDY    30  27  86 N26G38    29.83R WCI  16
CHEROKEE *     CLOUDY    27  25  91 N22G29    29.90R WCI  13
DENISON *      CLOUDY    28  27  93 NW21      29.89R WCI  15
LE MARS *      CLOUDY    27  23  86 NW17G24   29.96R WCI  14
ORANGE CITY *  CLOUDY    27  25  93 N15G21    29.92R WCI  15
SHELDON *      CLOUDY    25  25 100 N23       29.90R WCI  10
SIOUX CITY     MIX PCPN  26  24  92 NW24G31   29.95R WCI  11
SPENCER        MIX PCPN  27  23  85 N23G32    29.87R WCI  12
STORM LAKE *   CLOUDY    27  25  93 N25G32    29.86R WCI  11
$$

IAZ055>058-069>071-079>083-090>094-230800-
   SOUTHWEST IOWA

CITY           SKY/WX    TMP DP  RH WIND       PRES   REMARKS
ATLANTIC *     LGT SNOW  30  30 100 NW21G28   29.86R WCI  17
AUDUBON *      CLOUDY    28  25  86 N21G26    29.85R FOG     WCI  15
CLARINDA *     FLURRIES  30  30 100 N18G28    29.88R WCI  18
COUNCIL BLFS * CLOUDY    28  28 100 NW21G29   29.90R WCI  15
CRESTON *      CLOUDY    30  27  86 NW25G35   29.80R WCI  16
HARLAN  *      LGT RAIN  28  28 100 NW23G35   29.90R WCI  14
LAMONI         LGT SNOW  30  25  81 NW22G31   29.75R WCI  17
RED OAK *      MIX PCPN  30  28  93 NW18      29.88R WCI  18
SHENANDOAH *   MIX PCPN  30  28  93 NW17G26   29.91R WCI  18
$$

IAZ047>049-059>061-072>074-084-230800-
   CENTRAL IOWA

CITY           SKY/WX    TMP DP  RH WIND       PRES   REMARKS
AMES           FLURRIES  29  29 100 N23G31    29.75R WCI  15
ANKENY *       LGT RAIN  30  27  86 N17G30    29.75R WCI  18
BOONE *        LGT RAIN  28  27  93 N25G32    29.75R WCI  14
CHARITON *     CLOUDY    30  28  93 NW18G28   29.72R WCI  18
DES MOINES     LGT SNOW  30  25  81 NW20G29   29.75R BLWGSNOWWCI  17
GRINNELL*      MIX PCPN  31  29  94 NW25G31   29.66R WCI  17
KNOXVILLE *    CLOUDY    30  27  86 NW24      29.68R WCI  16
MARSHALLTOWN   CLOUDY    29  26  89 N24G37    29.68R WCI  15
NEWTON *       CLOUDY    30  28  93 N20G29    29.69R WCI  18
PELLA *        MIX PCPN  31  29  92 NW17G28   29.69R WCI  20
$$

IAZ004>006-015-016-023>025-035-036-230800-
   NORTH CENTRAL IOWA

CITY           SKY/WX    TMP DP  RH WIND       PRES   REMARKS
CLARION *      CLOUDY    28  28 100 N20G33    29.76R FOG     WCI  15
ESTHERVILLE    CLOUDY    25  24  96 N25G35    29.85R FOG     WCI   9
FORT DODGE *   LGT SNOW  28  25  88 N15G31    29.79R FOG     WCI  16
MASON CITY     MIX PCPN  27  23  85 N24       29.75R WCI  12
FOREST CITY *  CLOUDY    28  27  93 N25G32    29.76R WCI  14
WEBSTER CITY * LGT RAIN  28  25  86 N29G35    29.75R WCI  13
IOWA FALLS *   FLURRIES  29  26  89 N29G36    29.72R WCI  14
$$

IAZ007>011-017>019-026>030-037>042-050>054-066-230800-
   NORTHEAST IOWA

CITY           SKY/WX    TMP DP  RH WIND       PRES   REMARKS
CEDAR RAPIDS   LGT RAIN  35  33  92 NW14      29.58R WCI  26
CHARLES CITY * LGT RAIN  27  28 100 N22G30    29.68R WCI  12
CLINTON *      MIX PCPN  35  33  92 W12       29.54R WCI  27
DECORAH *      CLOUDY    28  28 100 N14G25    29.62R WCI  17
DUBUQUE        CLOUDY    32  31  96 N14       29.54R FOG     WCI  22
MONTICELLO *   LGT RAIN  34  34 100 N9        29.57R WCI  26
OELWEIN *      LGT RAIN  30  30 100 N22       29.62R WCI  17
WATERLOO       CLOUDY    30  27  88 N21G33    29.65R WCI  17
$$

IAZ064-065-067-068-078-230800-
   EAST CENTRAL IOWA

CITY           SKY/WX    TMP DP  RH WIND       PRES   REMARKS
DAVENPORT      CLOUDY    35  32  88 W9        29.56R WCI  28
IOWA CITY      CLOUDY    37  33  85 NW12      29.59R WCI  29
MT. PLEASANT * MOCLDY    34  34 100 NW8       29.59R WCI  27
MUSCATINE *    CLOUDY    36  34  93 W6        29.58R WCI  31
QUAD CITIES    MIX PCPN  35  32  88 W8        29.55R WCI  29
$$

IAZ062-063-075>077-085>089-095>099-230800-
   SOUTHEAST IOWA

CITY           SKY/WX    TMP DP  RH WIND       PRES   REMARKS
BURLINGTON     CLOUDY    36  33  89 W6        29.57R WCI  31
FAIRFIELD *    CLOUDY    36  34  93 NW13G20   29.60R FOG     WCI  27
FORT MADISON * CLOUDY    36  36 100 W9        29.59R WCI  29
KEOKUK *       CLOUDY    36  34  93 W9        29.59R WCI  29
OSKALOOSA *    LGT SNOW  32  31  98 N21G32    29.65R WCI  20
OTTUMWA        MIX PCPN  33  31  92 NW22G30   29.63R FOG     WCI  21
WASHINGTON *   CLOUDY    36  36 100 NW15      29.60R FOG     WCI  26
$$

ABBREVIATIONS USED IN REMARKS
   TC - TEMPERATURES IN CELSIUS
  WCI - WIND CHILL INDEX
   HX - HEAT INDEX
  VSB - VISIBILITY
$$





USA.gov is the U.S. government's official web portal to all federal, state and local government web resources and services.